This is the latest recevied weather packets stored in our database for station/object M0ADS. If no packets are shown the sender has not sent any weather packets the latest 10 day(s).
| Time | Temp. | Humidity | Pressure | Rain* | Wind** | Luminosity | Snow |
|---|---|---|---|---|---|---|---|
| 1777165176 | 6.11° C | 85% | 1024.8 hPa | 0 mm | - | - | - |
| 1777164276 | 6.11° C | 85% | 1024.8 hPa | 0 mm | - | - | - |
| 1777163376 | 6.11° C | 85% | 1024.8 hPa | 0 mm | - | - | - |
| 1777162476 | 6.11° C | 85% | 1024.8 hPa | 0 mm | - | - | - |
| 1777161576 | 6.11° C | 84% | 1024.6 hPa | 0 mm | - | - | - |
| 1777160676 | 6.67° C | 84% | 1024.7 hPa | 0 mm | - | - | - |
| 1777159776 | 6.67° C | 83% | 1024.6 hPa | 0 mm | - | - | - |
| 1777158873 | 6.67° C | 83% | 1024.7 hPa | 0 mm | - | - | - |
| 1777157974 | 7.22° C | 83% | 1024.5 hPa | 0 mm | - | - | - |
| 1777157074 | 7.22° C | 83% | 1024.5 hPa | 0 mm | - | - | - |
| 1777156173 | 7.22° C | 83% | 1024.2 hPa | 0 mm | - | - | - |
| 1777155273 | 7.22° C | 82% | 1024.2 hPa | 0 mm | - | - | - |
| 1777154373 | 7.22° C | 81% | 1024.1 hPa | 0 mm | - | - | - |
| 1777153473 | 7.78° C | 80% | 1024 hPa | 0 mm | - | - | - |
| 1777152571 | 7.78° C | 79% | 1023.9 hPa | 0 mm | - | - | - |
| 1777151669 | 8.33° C | 78% | 1023.9 hPa | 0 mm | - | - | - |
| 1777150768 | 8.33° C | 77% | 1023.8 hPa | 0 mm | - | - | - |
| 1777149921 | 8.89° C | 77% | 1023.6 hPa | 0 mm | - | - | - |
| 1777148966 | 9.44° C | 76% | 1023.4 hPa | 0 mm | - | - | - |
| 1777148067 | 10° C | 75% | 1023.3 hPa | 0 mm | - | - | - |
| 1777147166 | 10.56° C | 74% | 1023.1 hPa | 0 mm | - | - | - |
| 1777146267 | 10.56° C | 73% | 1022.7 hPa | 0 mm | - | - | - |
| 1777145365 | 11.11° C | 71% | 1022.5 hPa | 0 mm | - | - | - |
| 1777144465 | 11.67° C | 69% | 1022.2 hPa | 0 mm | - | - | - |
| 1777143563 | 12.78° C | 67% | 1021.9 hPa | 0 mm | - | - | - |
* Rain latest hour (hover to see other rain measurements)
** Current wind speed in m/s (hover to see current wind gust speed)